This is the latest recevied weather packets stored in our database for station/object SP3OTE-2. If no packets are shown the sender has not sent any weather packets the latest 10 day(s).
| Time | Temp. | Humidity | Pressure | Rain* | Wind** | Luminosity | Snow |
|---|---|---|---|---|---|---|---|
| 1777904780 | 32.78° C | 29% | 1011.4 hPa | - | - | - | - |
| 1777904180 | 32.22° C | 29% | 1011.4 hPa | - | - | - | - |
| 1777903579 | 31.67° C | 29% | 1011.6 hPa | - | - | - | - |
| 1777902979 | 32.22° C | 29% | 1011.6 hPa | - | - | - | - |
| 1777902379 | 32.22° C | 28% | 1011.7 hPa | - | - | - | - |
| 1777901779 | 32.22° C | 29% | 1011.8 hPa | - | - | - | - |
| 1777901177 | 31.67° C | 28% | 1011.9 hPa | - | - | - | - |
| 1777900577 | 31.11° C | 30% | 1012 hPa | - | - | - | - |
| 1777899977 | 31.67° C | 30% | 1011.9 hPa | - | - | - | - |
| 1777899377 | 30.56° C | 31% | 1012.2 hPa | - | - | - | - |
| 1777898776 | 30° C | 31% | 1012.1 hPa | - | - | - | - |
| 1777898176 | 28.33° C | 33% | 1012.3 hPa | - | - | - | - |
| 1777897576 | 27.78° C | 34% | 1012.3 hPa | - | - | - | - |
| 1777896976 | 27.78° C | 34% | 1012.4 hPa | - | - | - | - |
| 1777896376 | 27.22° C | 34% | 1012.7 hPa | - | - | - | - |
| 1777895775 | 27.22° C | 35% | 1012.7 hPa | - | - | - | - |
| 1777895175 | 26.67° C | 34% | 1012.8 hPa | - | - | - | - |
| 1777894575 | 26.67° C | 34% | 1012.9 hPa | - | - | - | - |
| 1777893974 | 26.67° C | 34% | 1013 hPa | - | - | - | - |
| 1777893374 | 27.22° C | 34% | 1013.1 hPa | - | - | - | - |
| 1777892774 | 26.11° C | 35% | 1013.1 hPa | - | - | - | - |
| 1777892174 | 26.67° C | 36% | 1013.3 hPa | - | - | - | - |
| 1777891574 | 26.11° C | 35% | 1013.4 hPa | - | - | - | - |
| 1777890973 | 25.56° C | 37% | 1013.3 hPa | - | - | - | - |
| 1777890373 | 25° C | 37% | 1013.5 hPa | - | - | - | - |
* Rain since midnight (hover to see other rain measurements)
** Current wind speed in m/s (hover to see current wind gust speed)